Flag for Canada Weather past 2 weeks in Regina, Saskatchewan, Canada

Now
48 °F

Scattered showers. Partly sunny.


Feels Like: 42 °F
Forecast: 42 / 56 °F
Wind: 16 mph from Northwest

Location: Regina Weather Station

Current Time: Apr 18, 2015 at 10:05:05 AM

Latest Report: Apr 18, 2015 at 9:00 AM


Visibility: 15 mi

Pressure: 29.96 "Hg

Humidity: 62%

Dew point: 36 °F

Location of ReginaLocation

Historic Weather in Regina — Graph

°F

Regina temperature yesterday

Maximum temperature yesterday: 61 °F (at 3:00 PM)
Minimum temperature yesterday: 32 °F (at 6:00 AM)
Average temperature yesterday: 49 °F

Past Weeks' High & Low Weather Summary

 TemperatureHumidityPressure
High70 °F (Apr 11, 1:00 PM)100% (Apr 4, 5:00 AM)30.27 "Hg (Apr 4, 5:00 AM)
Low21 °F (Apr 5, 4:00 AM)18% (Apr 13, 6:00 PM)29.40 "Hg (Apr 11, 6:00 PM)
Average41 °F61%30.00 "Hg
* Reported Apr 3 9:00 AM — Apr 18 9:00 AM, Regina, Weather by CustomWeather, © 2015

Note: Actual official high and low records may vary slightly from our data, if they occured in-between our weather recording intervals... More about our weather records

Advertising

Regina weather history for previous 24 hours

 ConditionsComfort  
Time TempWeatherWind HumidityBarometerVisibility
9:00 AM
Sat, Apr 18
48 °FScattered showers. Partly sunny.16 mph62%29.96 "Hg15 mi
8:00 AM46 °FScattered showers. Partly sunny.10 mph62%29.96 "Hg15 mi
7:00 AM43 °FPartly sunny.14 mph66%29.94 "Hg15 mi
6:00 AM41 °FPartly sunny.16 mph70%29.95 "Hg15 mi
5:00 AM41 °FPassing clouds.23 mph66%29.94 "Hg15 mi
4:00 AM43 °FPassing clouds.17 mph61%29.96 "Hg15 mi
3:00 AM45 °FPassing clouds.21 mph57%29.99 "Hg15 mi
2:00 AM45 °FPassing clouds.23 mph57%30.01 "Hg15 mi
1:00 AM46 °FPassing clouds.21 mph53%30.03 "Hg15 mi
12:00 AM45 °FPassing clouds.21 mph53%30.05 "Hg15 mi
11:00 PM
Fri, Apr 17
46 °FPassing clouds.17 mph50%30.08 "Hg15 mi
10:00 PM48 °FClear.15 mph43%30.10 "Hg15 mi
9:00 PM50 °FClear.13 mph43%30.10 "Hg15 mi
8:00 PM54 °FClear.8 mph35%30.11 "Hg15 mi
7:00 PM59 °FSunny.9 mph27%30.13 "Hg15 mi
6:00 PM61 °FSunny.8 mph23%30.15 "Hg15 mi
5:00 PM61 °FPassing clouds.3 mph23%30.16 "Hg15 mi
4:00 PM61 °FSunny.2 mph25%30.17 "Hg15 mi
3:00 PM61 °FPassing clouds.6 mph25%30.20 "Hg15 mi
2:00 PM59 °FScattered clouds.7 mph29%30.22 "Hg15 mi
1:00 PM57 °FPassing clouds.5 mph29%30.23 "Hg15 mi
12:00 PM55 °FSunny.2 mph36%30.24 "Hg15 mi
11:00 AM54 °FSunny.9 mph35%30.25 "Hg15 mi
10:00 AM52 °FSunny.12 mph44%30.25 "Hg15 mi
Weather by CustomWeather, © 2015

See weather overviewHow to use our weather pages